Location: Bridalveil Fall
(37.7166°N, 119.6468°W)
Time: 04:08:44
(UTC+00:00)

ISS - Pass Details

Date: 11 December 2025
Orbit: 414 x 424 km, 51.6° (Epoch: 18 May)

Event Time Altitude Azimuth Distance (km) Brightness Sun altitude
Rises 13:47:18 0° 195° (SSW) 2,395 0.1 -14.7°
Reaches altitude 10° 13:49:49 10° 176° (S) 1,533 -0.6 -14.3°
Maximum altitude 13:52:19 19° 130° (SE) 1,108 -0.7 -13.8°
Drops below altitude 10° 13:54:49 10° 83° (E) 1,538 0.2 -13.3°
Sets 13:57:21 0° 65° (ENE) 2,408 0.8 -12.9°
